Wind_Speed
26 25 25 25 24 24 25 24 24 23 24 23 23 22 21 20 20 21 22 22 21 21 21 21 21 21 20 21 21 21 20 19 20 19 19 19 19 19 20 21 21 21 21 21
27 27 27 27 26 25 26 26 26 25 25 24 24 22 21 21 21 21 22 22 22 22 22 22 23 22 22 22 22 22 22 21 20 20 19 19 20 20 21 22 22 22 22 22
28 28 28 29 27 27 27 27 28 28 26 25 25 24 22 22 22 22 22 22 22 22 22 22 22 22 23 22 22 23 23 22 22 21 21 21 21 21 22 22 22 22 23 22
30 29 31 29 28 28 28 28 28 27 27 26 26 24 23 23 23 22 22 22 23 22 22 23 23 23 24 23 23 23 23 23 23 23 23 23 23 23 22 22 22 22 23 23
31 31 31 30 29 29 29 29 28 28 27 27 27 26 25 25 25 23 23 23 23 23 23 23 23 23 24 24 24 24 24 24 24 24 23 23 23 22 22 22 22 22 23 23
31 32 32 30 29 29 30 30 29 29 28 28 28 28 27 26 26 25 25 24 24 24 25 24 24 24 24 25 25 24 24 24 25 24 23 23 23 23 23 23 23 23 23 24
32 32 33 32 31 30 30 30 30 30 29 29 29 28 27 26 26 26 25 25 25 25 25 25 26 26 25 25 25 25 26 25 25 24 24 23 24 24 24 24 24 24 24 24
31 32 33 32 31 30 30 29 30 30 30 30 30 29 27 27 26 25 26 26 26 25 25 25 26 26 25 24 25 25 26 26 24 24 24 24 25 25 25 25 25 26 25 25
31 31 31 31 30 31 31 30 30 30 30 30 29 29 28 28 26 25 26 26 26 26 25 25 25 25 26 25 25 25 25 25 25 25 25 25 25 25 26 26 26 26 26 26
30 31 31 31 30 31 31 31 30 30 30 29 28 28 27 27 26 26 26 26 26 25 25 25 25 25 25 25 25 25 25 25 25 25 25 26 26 26 26 26 26 26 26 26
30 30 30 30 30 30 30 31 30 30 30 30 30 30 29 28 28 28 27 26 25 26 25 25 25 26 25 25 25 26 25 26 27 27 28 27 26 26 26 26 26 25 25 25
30 29 30 29 29 30 31 31 30 30 30 31 31 30 29 28 27 27 27 27 26 26 25 25 26 25 25 26 26 26 25 26 26 26 27 27 26 26 26 27 26 25 24 24
30 30 30 29 29 30 31 32 31 31 31 31 30 30 29 28 27 28 27 27 26 27 26 26 26 25 25 26 26 26 25 26 26 26 26 26 26 26 25 25 25 24 24 24
30 29 29 29 30 30 30 31 31 31 31 30 30 30 29 29 29 29 27 27 27 28 27 27 27 27 26 26 27 26 26 26 26 26 26 25 24 25 24 24 24 23 23 22
28 29 29 29 30 30 30 31 31 30 29 30 29 29 29 29 29 29 28 28 28 27 27 27 27 27 26 26 26 26 26 26 26 25 24 23 23 23 24 23 23 22 22 22
27 28 28 28 28 28 29 29 29 28 28 29 29 29 29 29 29 29 28 28 27 26 26 27 27 27 27 26 26 26 26 25 25 24 23 23 23 22 23 22 22 22 22 22
26 26 27 27 27 27 27 27 27 27 27 28 28 27 28 28 28 28 28 28 27 26 26 26 26 26 26 25 26 26 25 25 24 24 23 22 22 22 22 22 22 22 21 20
26 26 26 25 24 25 25 26 25 24 25 26 25 25 25 26 27 27 28 27 27 26 26 26 25 26 26 26 26 26 26 25 24 24 23 22 22 23 23 22 21 21 20 20
25 25 24 23 23 24 24 24 23 23 23 23 23 24 24 24 25 25 26 27 26 25 25 25 25 25 25 25 25 25 25 25 24 23 23 23 23 23 23 22 22 20 20 19
23 23 23 22 22 21 21 20 20 20 21 22 22 23 23 23 23 23 24 25 26 27 26 25 25 25 25 25 25 25 25 24 23 23 23 23 23 23 24 23 21 20 19 18
21 21 21 21 21 21 21 19 18 19 19 19 20 21 22 22 22 22 22 23 23 24 24 24 24 24 25 25 24 23 23 22 22 23 23 23 23 22 21 21 21 21 20 20
20 19 19 20 19 19 19 19 18 18 18 18 19 19 20 20 21 21 21 21 21 22 23 23 24 24 25 24 23 23 22 22 22 22 22 22 22 21 20 20 20 20 20 20
18 18 18 18 17 18 18 18 18 17 17 17 17 18 18 19 20 20 20 20 20 20 21 20 20 21 22 22 22 22 22 22 21 20 20 21 21 20 20 20 20 20 20 20
19 19 18 17 17 17 17 17 17 17 17 16 16 17 17 17 17 18 17 18 18 19 19 19 19 20 20 21 21 21 20 20 20 20 20 21 21 21 21 21 21 20 20 20
18 18 17 16 17 17 17 17 16 16 16 17 17 17 16 16 16 15 15 17 19 19 20 20 20 19 19 19 19 20 20 20 20 21 21 21 22 22 21 21 21 21 21 20
16 16 16 17 18 18 17 16 15 15 15 16 16 17 17 17 17 17 18 18 18 18 18 18 18 19 19 19 19 19 20 20 21 21 21 21 22 22 21 21 21 21 20 19
14 15 16 17 17 17 17 17 17 16 16 15 16 16 17 17 17 18 18 17 17 17 17 17 18 18 18 18 18 19 19 20 21 21 21 21 21 21 21 21 21 20 20 19
Wind_Direction
265 263 262 263 264 266 268 270 272 274 275 275 275 275 276 276 277 279 281 284 285 287 292 295 296 295 297 302 305 306 304 302 302 301 299 295 295 293 292 291 288 286 284 282
264 263 262 261 263 265 266 268 270 272 272 273 273 274 276 279 280 280 280 280 282 285 289 293 296 294 295 298 301 304 303 302 300 299 298 298 297 296 293 291 289 286 284 283
264 263 263 261 263 264 265 267 269 270 271 270 271 273 275 279 281 282 282 282 281 283 286 288 291 294 294 295 297 300 301 300 299 299 299 299 298 296 294 292 289 287 286 285
265 263 262 265 265 264 265 267 269 269 271 271 271 273 274 276 278 281 282 284 284 284 284 287 289 292 293 292 295 297 298 298 299 299 298 297 296 296 294 292 291 289 287 286
265 265 266 266 266 266 266 267 268 270 271 272 273 273 274 277 278 281 282 283 285 284 285 287 289 294 295 291 293 297 297 297 297 297 297 296 296 296 296 293 291 289 287 285
265 266 267 268 268 267 267 266 266 269 270 271 273 274 275 276 277 279 281 284 287 288 289 289 290 291 294 293 291 294 296 297 296 295 295 295 295 295 294 293 291 289 288 286
265 266 268 270 271 269 267 268 267 269 269 271 272 273 273 273 274 275 278 281 285 288 290 290 292 291 293 293 295 294 294 294 294 294 294 294 293 294 294 293 292 290 288 287
265 266 269 270 271 270 269 270 271 270 269 271 271 270 270 271 271 273 276 277 280 284 287 289 290 289 290 291 292 293 294 295 293 292 291 292 293 293 293 293 292 292 290 288
266 268 270 270 270 270 269 270 272 271 270 272 271 270 270 271 270 272 275 278 280 284 285 287 288 289 288 289 290 290 292 293 293 292 292 292 293 292 291 290 291 292 289 288
266 267 268 269 270 270 270 271 272 271 270 270 270 270 270 270 270 271 273 276 280 282 285 287 288 288 288 288 290 291 292 292 292 293 295 294 293 294 294 293 292 290 289 287
266 266 266 267 267 269 270 272 272 271 270 270 270 271 272 271 269 270 270 272 276 280 283 285 286 287 287 288 289 290 292 293 294 294 294 295 296 298 296 295 295 293 290 288
266 268 268 267 266 267 269 270 271 269 269 270 270 269 270 270 268 269 268 269 273 276 280 284 286 285 286 288 289 289 291 293 294 296 297 298 298 299 299 296 295 295 292 290
266 267 268 267 267 268 268 269 269 268 268 269 269 270 269 268 267 268 268 269 270 274 278 280 282 283 286 288 289 289 290 292 295 298 298 298 299 300 298 297 296 296 295 294
265 266 267 267 268 269 271 271 269 267 267 269 269 269 267 266 267 268 268 269 271 273 276 277 280 283 285 286 288 288 289 292 295 298 298 298 299 300 298 298 297 296 295 295
265 266 267 267 267 269 271 272 273 270 267 266 267 267 266 266 266 267 267 268 270 272 275 277 279 281 283 284 286 286 288 290 294 296 297 298 299 299 298 298 298 298 297 295
264 265 266 267 267 268 270 271 272 270 268 267 266 267 267 266 266 266 266 268 270 272 273 276 277 279 281 283 285 286 288 290 292 295 297 299 299 299 298 298 298 299 300 298
263 264 265 267 268 269 269 270 271 270 269 267 266 267 267 266 266 267 266 267 269 271 273 275 275 277 279 281 284 285 286 288 290 293 296 299 299 299 298 296 297 299 300 300
261 263 265 267 270 271 270 269 270 271 271 267 263 264 267 266 265 264 264 266 268 271 273 274 274 275 276 279 282 284 285 287 289 290 292 294 296 298 298 298 298 299 300 298
263 265 267 269 271 270 270 270 269 271 271 269 268 268 267 267 267 267 266 265 266 268 271 274 275 275 276 278 280 282 284 285 286 287 289 290 292 296 299 300 298 298 298 298
265 266 267 270 271 271 268 267 269 272 272 271 270 268 265 266 268 268 268 267 266 267 268 271 273 274 275 278 280 281 282 283 285 287 290 291 291 292 294 298 300 301 301 302
264 266 267 269 271 271 271 271 274 274 273 273 271 269 267 267 269 271 271 270 269 269 269 272 273 273 274 276 278 280 281 283 285 286 287 290 291 293 295 298 300 300 301 301
263 265 268 270 269 269 270 270 273 274 274 276 275 273 270 269 271 272 272 271 269 270 272 274 274 273 273 274 275 278 281 283 287 285 286 289 290 292 296 299 299 299 300 300
263 264 267 269 269 268 269 271 272 274 275 275 275 274 273 271 272 273 273 271 269 272 275 276 277 277 275 274 274 277 280 282 285 285 287 288 290 292 295 299 300 299 300 300
263 266 269 270 268 269 273 276 272 271 271 270 271 273 275 273 273 274 275 274 273 274 276 277 278 278 277 274 273 275 277 280 282 285 288 288 290 292 293 296 298 299 299 300
263 266 268 267 268 271 274 275 272 269 269 270 271 273 275 276 275 276 277 278 278 278 277 277 279 279 278 276 273 272 274 277 279 283 287 289 291 291 292 293 294 295 297 298
263 265 267 268 269 273 277 276 272 273 276 275 274 274 274 276 278 277 280 283 283 282 280 280 280 279 277 275 274 273 274 276 279 283 284 287 291 292 292 293 293 293 294 293
265 267 269 270 270 272 274 274 275 277 276 274 274 276 277 278 279 280 283 285 284 284 281 281 282 282 279 275 273 273 275 277 280 282 283 285 288 290 291 291 291 292 291 290
Height
5850 5851 5852 5852 5853 5853 5853 5853 5853 5854 5854 5854 5854 5854 5854 5854 5854 5853 5853 5852 5851 5849 5847 5846 5843 5841 5839 5837 5835 5833 5830 5828 5826 5825 5823 5821 5819 5818 5816 5814 5813 5811 5810 5809
5843 5844 5845 5845 5846 5846 5847 5847 5847 5847 5848 5848 5848 5848 5848 5848 5848 5847 5846 5846 5845 5843 5842 5840 5838 5835 5834 5832 5830 5827 5825 5823 5821 5819 5817 5815 5814 5812 5810 5808 5807 5805 5803 5802
5836 5837 5837 5838 5840 5840 5840 5840 5841 5841 5842 5841 5842 5842 5842 5842 5841 5841 5840 5839 5838 5837 5836 5834 5832 5830 5828 5826 5824 5822 5820 5818 5816 5813 5811 5810 5808 5806 5804 5802 5800 5798 5797 5795
5828 5830 5829 5834 5833 5833 5833 5833 5833 5834 5834 5834 5835 5835 5835 5835 5834 5834 5833 5833 5832 5830 5829 5827 5825 5823 5821 5819 5817 5816 5814 5812 5810 5808 5806 5804 5802 5800 5797 5795 5793 5792 5790 5789
5820 5820 5821 5824 5825 5825 5826 5826 5826 5827 5827 5827 5827 5828 5828 5827 5827 5827 5826 5826 5825 5823 5822 5820 5819 5817 5814 5813 5811 5810 5808 5806 5804 5802 5800 5797 5795 5793 5791 5789 5787 5785 5783 5782
5812 5812 5813 5817 5817 5817 5818 5818 5819 5819 5819 5819 5819 5820 5821 5820 5820 5820 5819 5819 5818 5816 5815 5814 5812 5810 5808 5806 5804 5803 5801 5799 5797 5794 5793 5791 5789 5787 5784 5782 5781 5779 5777 5775
5804 5804 5805 5808 5808 5810 5811 5811 5811 5811 5811 5811 5812 5812 5813 5812 5812 5812 5812 5811 5811 5809 5808 5806 5805 5803 5801 5799 5798 5796 5794 5792 5789 5787 5785 5784 5782 5780 5778 5776 5774 5772 5770 5768
5796 5797 5800 5800 5800 5801 5802 5802 5802 5802 5803 5803 5804 5804 5804 5804 5804 5804 5804 5804 5803 5802 5801 5800 5798 5796 5795 5793 5791 5789 5787 5785 5783 5780 5778 5777 5775 5773 5771 5768 5766 5764 5762 5761
5789 5791 5791 5791 5791 5792 5792 5793 5793 5793 5794 5795 5795 5796 5796 5796 5797 5796 5796 5796 5795 5795 5794 5792 5791 5789 5788 5786 5784 5782 5780 5778 5776 5774 5772 5770 5768 5765 5762 5760 5758 5756 5755 5753
5781 5782 5782 5783 5783 5783 5783 5784 5784 5784 5785 5786 5786 5787 5788 5788 5788 5789 5788 5788 5788 5787 5787 5786 5784 5783 5781 5779 5777 5775 5773 5771 5769 5767 5765 5763 5760 5758 5756 5753 5751 5749 5747 5746
5772 5773 5774 5775 5775 5775 5775 5775 5775 5775 5776 5776 5777 5778 5779 5779 5780 5780 5780 5780 5780 5779 5779 5778 5777 5776 5774 5772 5770 5768 5766 5764 5762 5760 5758 5757 5754 5752 5749 5747 5744 5742 5741 5739
5765 5765 5766 5767 5766 5766 5766 5767 5766 5766 5767 5767 5767 5768 5769 5770 5770 5771 5771 5772 5772 5771 5771 5770 5769 5768 5767 5765 5763 5762 5760 5758 5755 5753 5751 5749 5747 5745 5742 5740 5738 5735 5734 5732
5756 5756 5757 5758 5758 5758 5757 5757 5757 5757 5758 5758 5758 5758 5759 5760 5761 5762 5762 5763 5763 5763 5763 5762 5762 5761 5759 5758 5757 5755 5753 5751 5749 5747 5745 5743 5740 5738 5736 5733 5731 5729 5727 5725
5747 5747 5748 5749 5749 5749 5749 5748 5748 5748 5749 5749 5749 5749 5749 5751 5752 5753 5753 5754 5754 5754 5754 5754 5754 5752 5751 5750 5749 5747 5746 5745 5742 5740 5738 5736 5734 5732 5729 5727 5725 5722 5720 5718
5739 5739 5740 5740 5740 5740 5740 5739 5739 5739 5739 5740 5740 5739 5740 5741 5743 5744 5744 5744 5745 5745 5745 5745 5745 5744 5743 5742 5741 5739 5738 5737 5735 5733 5731 5729 5727 5725 5723 5721 5719 5717 5714 5712
5730 5730 5730 5731 5731 5731 5731 5730 5730 5730 5730 5730 5730 5731 5731 5732 5733 5735 5735 5736 5736 5736 5736 5736 5736 5736 5735 5734 5733 5732 5731 5730 5728 5727 5725 5723 5721 5719 5717 5715 5713 5711 5709 5706
5721 5722 5722 5722 5723 5723 5722 5722 5722 5721 5721 5721 5721 5721 5722 5723 5724 5725 5726 5727 5727 5728 5728 5728 5728 5728 5727 5726 5726 5725 5724 5723 5722 5721 5719 5717 5715 5713 5711 5709 5707 5704 5702 5700
5713 5714 5714 5714 5714 5714 5714 5713 5713 5713 5713 5713 5713 5713 5714 5715 5715 5716 5717 5718 5719 5719 5720 5720 5720 5720 5720 5719 5718 5717 5716 5716 5715 5714 5713 5711 5709 5707 5705 5703 5700 5698 5696 5694
5705 5706 5706 5707 5706 5706 5706 5705 5705 5705 5705 5706 5706 5706 5706 5707 5707 5707 5708 5709 5710 5711 5712 5712 5712 5712 5712 5712 5711 5710 5710 5709 5709 5707 5706 5705 5703 5702 5699 5697 5695 5693 5691 5689
5698 5699 5699 5699 5699 5699 5698 5698 5698 5698 5699 5699 5699 5699 5700 5700 5700 5700 5700 5701 5701 5702 5703 5703 5704 5704 5704 5704 5704 5704 5704 5703 5702 5701 5700 5698 5697 5696 5694 5692 5689 5687 5686 5684
5692 5692 5692 5692 5692 5692 5692 5692 5692 5692 5693 5693 5692 5693 5693 5693 5693 5693 5693 5693 5694 5694 5695 5695 5696 5697 5697 5697 5697 5697 5697 5696 5695 5694 5693 5692 5691 5689 5687 5686 5684 5682 5680 5678
5686 5686 5686 5686 5686 5686 5686 5687 5687 5687 5687 5687 5687 5687 5687 5687 5687 5687 5687 5687 5687 5687 5688 5688 5689 5689 5689 5690 5690 5690 5690 5690 5689 5688 5687 5686 5685 5683 5682 5680 5678 5676 5674 5672
5680 5680 5681 5681 5681 5681 5681 5681 5682 5682 5682 5682 5682 5681 5681 5681 5681 5681 5681 5681 5681 5682 5682 5682 5682 5682 5682 5683 5684 5684 5684 5683 5683 5682 5681 5680 5679 5677 5676 5674 5672 5670 5668 5666
5675 5676 5676 5676 5676 5676 5677 5676 5676 5676 5677 5676 5676 5676 5676 5676 5676 5676 5676 5676 5676 5676 5676 5676 5676 5676 5676 5676 5677 5677 5678 5677 5677 5676 5675 5674 5673 5671 5670 5668 5666 5664 5662 5660
5670 5671 5671 5671 5672 5672 5672 5671 5671 5671 5671 5671 5671 5671 5671 5671 5671 5670 5670 5671 5671 5671 5670 5670 5670 5670 5670 5670 5670 5671 5671 5671 5671 5670 5669 5668 5666 5665 5664 5662 5660 5658 5656 5654
5666 5666 5666 5666 5667 5667 5667 5667 5666 5666 5666 5666 5666 5666 5666 5667 5666 5666 5666 5666 5665 5665 5665 5664 5664 5664 5664 5664 5664 5664 5664 5664 5664 5663 5662 5661 5660 5658 5657 5655 5653 5651 5649 5647
5661 5661 5662 5662 5662 5662 5662 5662 5662 5662 5662 5662 5662 5662 5662 5661 5661 5661 5661 5660 5660 5660 5659 5659 5658 5658 5658 5657 5657 5658 5658 5658 5657 5656 5655 5654 5653 5651 5650 5648 5646 5644 5643 5641